Regional Weather Roundup
Issued by NWS Newport/Morehead, NC

Current Version | Previous Version | Graphics & Text | Print | Product List | Glossary On
Versions: 1 2 3 4 5 6 7 8 9 10 11 12 13 14 15 16 17 18 19 20 21 22 23 24 25 26 27 28 29 30 31 32 33 34 35 36 37 38 39 40 41 42 43 44 45 46 47 48 49 50
000 ASUS42 KMHX 280124 RWRMHX WEATHER ROUNDUP FOR EASTERN NORTH CAROLINA NATIONAL WEATHER SERVICE NEWPORT/MOREHEAD CITY NC 900 PM EDT FRI MAR 27 2015 NOTE: "FAIR" INDICATES FEW OR NO CLOUDS BELOW 12,000 FEET WITH NO SIGNIFICANT WEATHER AND/OR OBSTRUCTIONS TO VISIBILITY NCZ015>017-031-032-045>047-102-103-280200- NORTH COAST CITY SKY/WX TMP DP RH WIND PRES REMARKS EDENTON CLOUDY 41 39 93 N9 29.79S ELIZABETH CITY CLOUDY 41 37 87 N15 29.78S KITTY HAWK CLOUDY 40 39 96 N13G20 29.74R MANTEO CLOUDY 40 38 93 N17G23 29.75R $$ NCZ045>047-081-094-103-104-280200- CENTRAL COAST CITY SKY/WX TMP DP RH WIND PRES REMARKS FRISCO LGT RAIN 43 39 86 N16G30 29.72R SWANQUARTER N/A 43 N/A N/A VRB9G17 29.71S $$ NCZ095-097-098-100-101-280200- SOUTHERN COAST CITY SKY/WX TMP DP RH WIND PRES REMARKS BEAUFORT CLOUDY 45 43 93 N14 29.73S CEDAR ISLAND N/A 46 N/A N/A N21G31 29.77S JACKSONVILLE CLOUDY 44 40 85 N14 29.77R PINEY ISLAND CLOUDY N/A N/A N/A N20 29.74R WILMINGTON CLOUDY 46 43 89 N9 29.76R $$ NCZ011>013-027>030-043-044-078>080-089-090>093-098-280200- COASTAL PLAIN CITY SKY/WX TMP DP RH WIND PRES REMARKS AHOSKIE LGT RAIN 39 37 93 N3 29.81R CLINTON CLOUDY 44 41 89 N8 29.80S ELIZABETHTOWN CLOUDY 44 42 91 N3 29.79R GOLDSBORO CLOUDY 43 43 99 N8 29.77F GREENVILLE CLOUDY 43 39 87 N6 29.82S HAVELOCK CLOUDY 45 41 86 N16 29.75S KENANSVILLE CLOUDY 43 40 89 N10 29.80R KINSTON N/A 43 39 87 N9 29.79S NEW BERN CLOUDY 44 40 85 N14 29.77S RICHLANDS CLOUDY 43 37 81 N12 29.78S ROCKY MOUNT CLOUDY 42 38 85 N8 29.81R WASHINGTON CLOUDY 42 39 89 N8 29.79R WHITEVILLE CLOUDY 45 42 88 N8 29.78R $$ AMZ130-135-150-152-154-156-158-170-250-252-270-ANZ085-086-088-633-658-670-280200- MARINE OBSERVATIONS STATION/POSITION TIME TEMP WIND PRES WAVE SWELL AIR SEA DIR/SP/G HT/PER HT/PER (UTC) (F) (DEG/KT/KT) (MB) (FT/S) (FT/S) CHESAPEAKE LIGHT 0100 39 360/ 19/ 21 1009.2 64 E VA BEACH 0050 44 53 350/ 21/ 25 1006.0 9/ 9 5/ 9 DUCK 0100 41 41 360/ 19/ 25 1006.7 2 E DUCK 0011 41 N/A 6/ 7 2/11 10 NE DUCK NOT AVBL OREGON INLET 0100 40 50 350/ 13/ 18 1007.2 HATTERAS CG 0006 45 57 20/ 21/ 26 1006.1 CAPE LOOKOUT 0100 45 10/ 19/ 26 1006.1 BEAUFORT LAB 0012 47 58 20/ 11/ 19 1005.4 27 SE WRIGHTSVLE 0100 48 64 30/ 23/ 27 1006.8 5 SE WRIGHTSVLE 0100 48 56 360/ 21/ 23 1006.5 225 S CAPE HAT 0050 70 69 220/ 19/ 23 1005.9 9/ 8 41 SE CHARLESTON 0050 57 69 350/ 19/ 23 1005.8 6/ 6 3/ 8 $$

USA.gov is the U.S. government's official web portal to all federal, state and local government web resources and services.